Location: Barruelo
(41.2448°N, 3.8231°W)
Time: 23:20:57
(UTC+00:00)

Spot 4 Rocket - Visible Passes

Search period start: 12 March 2026 00:00
Search period end: 22 March 2026 00:00
Orbit: 768 x 774 km, 98.8° (Epoch: 12 March)

Date Brightness Start Highest point End Pass type
(mag) Time Alt. Az. Time Alt. Az. Time Alt. Az.
12 Mar 5.4 19:35:25 10° S 19:40:12 41° W 19:45:01 10° NNW visible
13 Mar 4.0 18:59:55 10° SSE 19:05:00 89° WSW 19:10:08 10° NNW visible
14 Mar 6.4 20:05:17 10° SW 20:09:13 22° W 20:13:10 10° NW visible
15 Mar 5.1 19:28:58 10° S 19:33:52 48° W 19:38:48 10° NNW visible
16 Mar 4.0 18:53:38 10° SSE 18:58:42 80° ENE 19:03:49 10° NNW visible
16 Mar 7.1 20:36:36 10° WSW 20:38:20 12° W 20:40:05 10° WNW visible
17 Mar 6.2 19:58:38 10° SSW 20:02:50 26° W 20:07:04 10° NW visible
18 Mar 4.8 19:22:33 10° S 19:27:32 56° W 19:32:33 10° NNW visible
19 Mar 4.0 18:47:22 10° SSE 18:52:24 69° ENE 18:57:29 10° N visible
19 Mar 6.9 20:29:23 10° WSW 20:31:56 14° W 20:34:29 10° WNW visible
20 Mar 6.0 19:52:03 10° SSW 19:56:28 30° W 20:00:55 10° NW visible
21 Mar 4.5 19:16:10 10° S 19:21:12 65° WSW 19:26:17 10° NNW visible
